STARLINK-32855, 62813

Orbit data source: Space-Track

STARLINK-32855, 62813 is a payload satellite owned by SpaceX/Seattle (US) in LEO that was launched on Fri, 24 Jan 2025 UTC via an FALCON 9 launch vehicle from the Air Force Western Test Range (AFWTR). Payload-class satellites include a variety of spacecraft equipped with specific instruments for various scientific and technological missions. These include communications satellites like Starlink; space stations such as the ISS; scientific satellites like the Hubble; Earth observation satellites from companies like Planet Labs, Umbra, and HawkEye 360; GPS; miniature CubeSats for education and research; and military/defense satellites.

Loading next visibility...
Identifier
62813, 2025-018H
Orbit
LEO
Country
Flag of USUS
Related business
Manufacturer
SpaceX/Seattle
Mission
Operational Commercial Communications
Bus & Motor
STARLINK V2M, Unknown motor
Mass
730 kg wet, ~700 kg dry
Launch date (UTC)
2025-01-24 (2 years ago)
Launch vehicle
FALCON 9
Launch site
Air Force Western Test Range (AFWTR)
Object type
Payload
Rocket body
Debris
Shape & HBR
Box + 2 Pan, 17.7 m
Radar Cross Section
33.884 m², Large (>1 m²)

Expand to show TLE details & history
Last TLE update: 10 hours ago

TLE from 10 hours ago
0 STARLINK-32855
1 62813U 25018H   26237.72415632  .00021168  00000-0  63581-3 0  9990
2 62813  53.1559 241.9471 0000836  84.7087 275.4011 15.34402068 89087
Epoch: 2026-08-25T17:22Z
TLE epoch observation values (Epoch: 2026-08-25T17:22:47.106Z)
Latitude
0.00001°
Longitude
7.26343°
Altitude
463.544 km
Speed
7.636 km/s
True Right ascension
16h 07m 47s
True Declination
0° 00' 00"
Sunlit
Object was in daylight at epoch
Visualization orbit readout
Latitude
Unknown
Longitude
Unknown
Altitude
Unknown
Speed
Unknown
Apparent Right ascension
Unknown
Apparent Declination
Unknown
Sunlit
N/A
Visualization observer readout
Local Sidereal Time
19:07:52
Azimuth
Unknown
Elevation
Unknown
Doppler factor
Unknown
Orbital elements
Apogee altitude
463.527 km
Perigee altitude
462.383 km
Semi-major axis
6,841.092 km
Eccentricity
0.00008
Inclination
53.1559°
RAAN
241.9471°
Arg. of periapsis
84.7087°
True anomaly
275.39156°
Mean anomaly
275.4011°
Eccentric anomaly
275.39633°
Mean motion
3.83579 °/min
Orbital period
93.85 mins
BSTAR
0.00063581
Loading maneuver chart data...
Computing Atmospheric mass density...
Loading historical data...
Loading historical data...
Loading historical data...
Loading historical data...
Loading historical data...
Loading historical data...
Loading historical data...

Documentation

Showing up to 5 results
|